Location: Alsip
(41.6689°N, 87.7387°W)
Time: 15:14:39
(UTC+00:00)

Resurs 1-4 Rocket - Pass Details

Date: 14 July 2020
Orbit: 800 x 814 km, 98.6° (Epoch: 12 August)

Event Time Altitude Azimuth Distance (km) Brightness Sun altitude
Rises 06:27:40 0° 26° (NNE) 3,343 6.5 -26.3°
Reaches altitude 10° 06:30:28 10° 40° (NE) 2,405 5.3 -26.3°
Maximum altitude 06:34:44 24° 94° (E) 1,614 3.7 -26.1°
Enters shadow 06:35:35 23° 108° (ESE) 1,650 3.6 -26.1°
